Time,TemperatureF,DewpointF,PressureIn,WindDirection,WindDirectionDegrees,WindSpeedMPH,WindSpeedGustMPH,Humidity,HourlyPrecipIn,Conditions,Clouds,dailyrainin,SoftwareType,DateUTC
2013-08-02 00:07:00,56.5,53.0,29.95,SE,125,2.0,6.0,89,0.00,,,0.00,weatherlink.com 1.10,2013-08-02 07:07:00,
2013-08-02 00:22:00,56.2,53.0,29.94,SSE,162,0.0,3.0,89,0.00,,,0.00,weatherlink.com 1.10,2013-08-02 07:22:00,
2013-08-02 00:37:00,55.9,53.0,29.94,SSW,193,2.0,3.0,90,0.00,,,0.00,weatherlink.com 1.10,2013-08-02 07:37:00,
2013-08-02 00:52:00,55.7,53.0,29.93,ESE,122,3.0,7.0,90,0.00,,,0.00,weatherlink.com 1.10,2013-08-02 07:52:00,
2013-08-02 01:07:00,55.7,53.0,29.93,East,100,1.0,5.0,90,0.00,,,0.00,weatherlink.com 1.10,2013-08-02 08:07:00,
2013-08-02 01:22:00,56.1,53.0,29.93,SSW,192,4.0,8.0,90,0.00,,,0.00,weatherlink.com 1.10,2013-08-02 08:22:00,
2013-08-02 01:37:00,56.3,53.0,29.93,South,179,2.0,7.0,89,0.00,,,0.00,weatherlink.com 1.10,2013-08-02 08:37:00,
2013-08-02 01:52:00,56.4,53.0,29.93,SSW,205,6.0,11.0,89,0.00,,,0.00,weatherlink.com 1.10,2013-08-02 08:52:00,
2013-08-02 02:07:00,56.3,54.0,29.93,SE,131,7.0,12.0,90,0.00,,,0.00,weatherlink.com 1.10,2013-08-02 09:07:00,
2013-08-02 02:22:00,56.5,54.0,29.92,South,188,2.0,10.0,92,0.00,,,0.00,weatherlink.com 1.10,2013-08-02 09:22:00,
2013-08-02 02:37:00,56.2,54.0,29.92,South,177,5.0,11.0,92,0.00,,,0.00,weatherlink.com 1.10,2013-08-02 09:37:00,
2013-08-02 02:52:00,56.0,54.0,29.92,SSE,162,5.0,15.0,91,0.00,,,0.00,weatherlink.com 1.10,2013-08-02 09:52:00,
2013-08-02 03:07:00,55.9,53.0,29.91,SSW,195,6.0,11.0,91,0.00,,,0.00,weatherlink.com 1.10,2013-08-02 10:07:00,
2013-08-02 03:22:00,55.7,53.0,29.91,SSW,193,2.0,8.0,91,0.00,,,0.00,weatherlink.com 1.10,2013-08-02 10:22:00,
2013-08-02 03:37:00,55.3,53.0,29.91,SSE,166,3.0,5.0,92,0.00,,,0.00,weatherlink.com 1.10,2013-08-02 10:37:00,
2013-08-02 03:52:00,55.4,53.0,29.91,SSW,198,6.0,7.0,92,0.00,,,0.00,weatherlink.com 1.10,2013-08-02 10:52:00,
2013-08-02 04:07:00,55.4,54.0,29.91,SSE,147,3.0,8.0,93,0.00,,,0.00,weatherlink.com 1.10,2013-08-02 11:07:00,
2013-08-02 04:22:00,55.0,53.0,29.91,SE,146,4.0,11.0,93,0.00,,,0.00,weatherlink.com 1.10,2013-08-02 11:22:00,
2013-08-02 04:37:00,54.9,53.0,29.92,SSW,204,4.0,11.0,93,0.00,,,0.00,weatherlink.com 1.10,2013-08-02 11:37:00,
2013-08-02 04:52:00,55.0,53.0,29.92,SSE,149,11.0,12.0,94,0.00,,,0.00,weatherlink.com 1.10,2013-08-02 11:52:00,
2013-08-02 05:07:00,55.0,53.0,29.92,WSW,239,7.0,12.0,94,0.00,,,0.00,weatherlink.com 1.10,2013-08-02 12:07:00,
2013-08-02 05:22:00,54.9,53.0,29.92,SSW,204,4.0,15.0,94,0.00,,,0.00,weatherlink.com 1.10,2013-08-02 12:22:00,
2013-08-02 05:38:00,55.0,53.0,29.92,SSE,155,4.0,14.0,94,0.00,,,0.00,weatherlink.com 1.10,2013-08-02 12:38:00,
2013-08-02 05:52:00,54.5,53.0,29.93,SW,225,4.0,13.0,93,0.00,,,0.00,weatherlink.com 1.10,2013-08-02 12:52:00,
2013-08-02 06:08:00,54.2,52.0,29.94,SW,217,4.0,9.0,93,0.00,,,0.00,weatherlink.com 1.10,2013-08-02 13:08:00,
2013-08-02 06:22:00,54.3,53.0,29.94,SE,138,7.0,12.0,94,0.00,,,0.00,weatherlink.com 1.10,2013-08-02 13:22:00,
2013-08-02 06:38:00,54.5,53.0,29.94,SSW,198,5.0,10.0,94,0.00,,,0.00,weatherlink.com 1.10,2013-08-02 13:38:00,
2013-08-02 06:53:00,54.4,53.0,29.94,SE,145,4.0,10.0,94,0.00,,,0.00,weatherlink.com 1.10,2013-08-02 13:53:00,
2013-08-02 07:08:00,54.3,53.0,29.95,SSE,149,4.0,9.0,94,0.00,,,0.00,weatherlink.com 1.10,2013-08-02 14:08:00,
2013-08-02 07:23:00,54.1,53.0,29.95,SSE,157,8.0,13.0,94,0.00,,,0.00,weatherlink.com 1.10,2013-08-02 14:23:00,
2013-08-02 07:38:00,54.1,53.0,29.95,SSE,149,4.0,10.0,95,0.00,,,0.00,weatherlink.com 1.10,2013-08-02 14:38:00,
2013-08-02 07:53:00,54.2,53.0,29.95,SSE,163,10.0,13.0,94,0.00,,,0.00,weatherlink.com 1.10,2013-08-02 14:53:00,
2013-08-02 08:08:00,54.3,53.0,29.96,South,184,5.0,11.0,94,0.00,,,0.00,weatherlink.com 1.10,2013-08-02 15:08:00,
2013-08-02 08:23:00,54.6,53.0,29.96,SSE,153,7.0,10.0,94,0.00,,,0.00,weatherlink.com 1.10,2013-08-02 15:23:00,
2013-08-02 08:38:00,54.8,53.0,29.96,South,179,5.0,10.0,93,0.00,,,0.00,weatherlink.com 1.10,2013-08-02 15:38:00,
2013-08-02 08:53:00,55.3,53.0,29.97,SSW,195,7.0,12.0,92,0.00,,,0.00,weatherlink.com 1.10,2013-08-02 15:53:00,
2013-08-02 09:08:00,56.0,54.0,29.97,SSW,198,7.0,14.0,91,0.00,,,0.00,weatherlink.com 1.10,2013-08-02 16:08:00,
2013-08-02 09:23:00,56.4,54.0,29.97,SSE,159,6.0,14.0,90,0.00,,,0.00,weatherlink.com 1.10,2013-08-02 16:23:00,
2013-08-02 09:38:00,57.6,54.0,29.96,South,179,7.0,12.0,87,0.00,,,0.00,weatherlink.com 1.10,2013-08-02 16:38:00,
2013-08-02 09:53:00,58.3,54.0,29.96,South,176,5.0,13.0,84,0.00,,,0.00,weatherlink.com 1.10,2013-08-02 16:53:00,
2013-08-02 10:08:00,59.4,54.0,29.96,SSW,198,6.0,12.0,83,0.00,,,0.00,weatherlink.com 1.10,2013-08-02 17:08:00,
2013-08-02 10:23:00,60.1,54.0,29.96,SSW,211,6.0,12.0,81,0.00,,,0.00,weatherlink.com 1.10,2013-08-02 17:23:00,
2013-08-02 10:38:00,60.2,54.0,29.96,South,191,4.0,11.0,81,0.00,,,0.00,weatherlink.com 1.10,2013-08-02 17:38:00,
2013-08-02 10:53:00,60.7,55.0,29.96,SSE,150,7.0,11.0,81,0.00,,,0.00,weatherlink.com 1.10,2013-08-02 17:53:00,
2013-08-02 11:08:00,61.2,55.0,29.96,SSW,194,5.0,12.0,80,0.00,,,0.00,weatherlink.com 1.10,2013-08-02 18:08:00,
2013-08-02 11:23:00,59.8,55.0,29.96,East,100,6.0,11.0,83,0.00,,,0.00,weatherlink.com 1.10,2013-08-02 18:23:00,
2013-08-02 11:38:00,60.0,55.0,29.96,SSW,212,9.0,14.0,82,0.00,,,0.00,weatherlink.com 1.10,2013-08-02 18:38:00,
2013-08-02 11:53:00,60.2,55.0,29.96,SSW,201,5.0,12.0,82,0.00,,,0.00,weatherlink.com 1.10,2013-08-02 18:53:00,
2013-08-02 12:08:00,61.2,55.0,29.95,SSW,198,10.0,13.0,81,0.00,,,0.00,weatherlink.com 1.10,2013-08-02 19:08:00,
2013-08-02 12:23:00,61.2,55.0,29.95,SSW,203,6.0,14.0,80,0.00,,,0.00,weatherlink.com 1.10,2013-08-02 19:23:00,
2013-08-02 12:38:00,61.8,55.0,29.95,SW,229,7.0,14.0,79,0.00,,,0.00,weatherlink.com 1.10,2013-08-02 19:38:00,
2013-08-02 12:53:00,61.9,55.0,29.95,South,180,5.0,14.0,79,0.00,,,0.00,weatherlink.com 1.10,2013-08-02 19:53:00,
2013-08-02 13:08:00,61.8,55.0,29.95,South,177,8.0,16.0,79,0.00,,,0.00,weatherlink.com 1.10,2013-08-02 20:08:00,
2013-08-02 13:23:00,62.4,55.0,29.94,WSW,240,9.0,15.0,78,0.00,,,0.00,weatherlink.com 1.10,2013-08-02 20:23:00,
2013-08-02 13:38:00,63.5,56.0,29.94,SSE,148,5.0,16.0,77,0.00,,,0.00,weatherlink.com 1.10,2013-08-02 20:38:00,
2013-08-02 13:53:00,63.9,56.0,29.94,South,172,9.0,15.0,75,0.00,,,0.00,weatherlink.com 1.10,2013-08-02 20:53:00,
2013-08-02 14:08:00,63.9,56.0,29.94,West,262,9.0,15.0,75,0.00,,,0.00,weatherlink.com 1.10,2013-08-02 21:08:00,
2013-08-02 14:23:00,63.2,56.0,29.93,SW,223,8.0,16.0,77,0.00,,,0.00,weatherlink.com 1.10,2013-08-02 21:23:00,
2013-08-02 14:38:00,63.5,56.0,29.93,SW,216,11.0,16.0,76,0.00,,,0.00,weatherlink.com 1.10,2013-08-02 21:38:00,
2013-08-02 14:53:00,62.7,55.0,29.92,South,191,10.0,16.0,77,0.00,,,0.00,weatherlink.com 1.10,2013-08-02 21:53:00,
2013-08-02 15:08:00,62.3,56.0,29.92,SSW,200,9.0,19.0,79,0.00,,,0.00,weatherlink.com 1.10,2013-08-02 22:08:00,
2013-08-02 15:23:00,62.4,56.0,29.92,WNW,295,5.0,18.0,80,0.00,,,0.00,weatherlink.com 1.10,2013-08-02 22:23:00,
2013-08-02 15:38:00,62.3,55.0,29.91,SSW,198,10.0,20.0,78,0.00,,,0.00,weatherlink.com 1.10,2013-08-02 22:38:00,
2013-08-02 15:53:00,62.7,55.0,29.91,SE,131,9.0,20.0,77,0.00,,,0.00,weatherlink.com 1.10,2013-08-02 22:53:00,
2013-08-02 16:08:00,62.1,55.0,29.91,South,186,10.0,21.0,78,0.00,,,0.00,weatherlink.com 1.10,2013-08-02 23:08:00,
2013-08-02 16:23:00,62.1,55.0,29.91,SSE,149,9.0,17.0,78,0.00,,,0.00,weatherlink.com 1.10,2013-08-02 23:23:00,
2013-08-02 16:38:00,61.5,55.0,29.91,South,191,9.0,19.0,80,0.00,,,0.00,weatherlink.com 1.10,2013-08-02 23:38:00,
2013-08-02 16:53:00,61.1,55.0,29.91,SSW,210,10.0,17.0,80,0.00,,,0.00,weatherlink.com 1.10,2013-08-02 23:53:00,
2013-08-02 17:09:00,60.9,55.0,29.91,SSW,211,11.0,19.0,82,0.00,,,0.00,weatherlink.com 1.10,2013-08-03 00:09:00,
2013-08-02 17:24:00,60.7,55.0,29.91,SE,131,11.0,21.0,81,0.00,,,0.00,weatherlink.com 1.10,2013-08-03 00:24:00,
2013-08-02 17:39:00,60.6,55.0,29.91,SSE,167,15.0,18.0,81,0.00,,,0.00,weatherlink.com 1.10,2013-08-03 00:39:00,
2013-08-02 17:54:00,60.5,55.0,29.90,WSW,252,6.0,17.0,82,0.00,,,0.00,weatherlink.com 1.10,2013-08-03 00:54:00,
2013-08-02 18:09:00,60.7,55.0,29.90,SSW,208,10.0,19.0,82,0.00,,,0.00,weatherlink.com 1.10,2013-08-03 01:09:00,
2013-08-02 18:24:00,59.9,55.0,29.90,SSW,207,7.0,17.0,83,0.00,,,0.00,weatherlink.com 1.10,2013-08-03 01:24:00,
2013-08-02 18:39:00,59.3,54.0,29.90,SW,224,11.0,18.0,83,0.00,,,0.00,weatherlink.com 1.10,2013-08-03 01:39:00,
2013-08-02 18:54:00,59.1,54.0,29.90,SSW,206,11.0,19.0,84,0.00,,,0.00,weatherlink.com 1.10,2013-08-03 01:54:00,
2013-08-02 19:09:00,58.6,54.0,29.90,SSE,149,6.0,16.0,85,0.00,,,0.00,weatherlink.com 1.10,2013-08-03 02:09:00,
2013-08-02 19:24:00,57.8,54.0,29.89,South,177,5.0,19.0,86,0.00,,,0.00,weatherlink.com 1.10,2013-08-03 02:24:00,
2013-08-02 19:38:00,57.4,54.0,29.89,SSE,160,8.0,16.0,87,0.00,,,0.00,weatherlink.com 1.10,2013-08-03 02:38:00,
2013-08-02 19:54:00,56.8,53.0,29.90,SSW,207,14.0,16.0,87,0.00,,,0.00,weatherlink.com 1.10,2013-08-03 02:54:00,
2013-08-02 20:09:00,55.8,53.0,29.90,SE,145,6.0,19.0,89,0.00,,,0.00,weatherlink.com 1.10,2013-08-03 03:09:00,
2013-08-02 20:24:00,55.4,53.0,29.90,South,172,15.0,17.0,90,0.00,,,0.00,weatherlink.com 1.10,2013-08-03 03:24:00,
2013-08-02 20:39:00,55.1,53.0,29.90,WSW,242,6.0,15.0,91,0.00,,,0.00,weatherlink.com 1.10,2013-08-03 03:39:00,
2013-08-02 20:54:00,54.9,52.0,29.91,SSW,207,7.0,15.0,91,0.00,,,0.00,weatherlink.com 1.10,2013-08-03 03:54:00,
2013-08-02 21:09:00,54.8,53.0,29.91,SSW,208,7.0,14.0,92,0.00,,,0.00,weatherlink.com 1.10,2013-08-03 04:09:00,
2013-08-02 21:24:00,54.6,52.0,29.91,SSE,157,8.0,14.0,92,0.00,,,0.00,weatherlink.com 1.10,2013-08-03 04:24:00,
2013-08-02 21:39:00,54.6,52.0,29.91,South,172,7.0,15.0,92,0.00,,,0.00,weatherlink.com 1.10,2013-08-03 04:39:00,
2013-08-02 21:54:00,54.6,52.0,29.91,SSW,193,6.0,15.0,92,0.00,,,0.00,weatherlink.com 1.10,2013-08-03 04:54:00,
2013-08-02 22:09:00,54.5,53.0,29.92,SE,136,8.0,17.0,93,0.00,,,0.00,weatherlink.com 1.10,2013-08-03 05:09:00,
2013-08-02 22:24:00,54.5,53.0,29.91,South,181,7.0,15.0,93,0.00,,,0.00,weatherlink.com 1.10,2013-08-03 05:24:00,
2013-08-02 22:39:00,54.5,53.0,29.92,SSE,167,3.0,15.0,93,0.00,,,0.00,weatherlink.com 1.10,2013-08-03 05:39:00,
2013-08-02 22:55:00,54.2,52.0,29.92,SSE,148,8.0,15.0,93,0.00,,,0.00,weatherlink.com 1.10,2013-08-03 05:55:00,
2013-08-02 23:09:00,54.3,52.0,29.91,South,172,4.0,14.0,93,0.00,,,0.00,weatherlink.com 1.10,2013-08-03 06:09:00,
2013-08-02 23:24:00,54.6,53.0,29.92,SSW,208,9.0,15.0,93,0.00,,,0.00,weatherlink.com 1.10,2013-08-03 06:24:00,
2013-08-02 23:39:00,54.9,53.0,29.91,SE,136,10.0,17.0,93,0.00,,,0.00,weatherlink.com 1.10,2013-08-03 06:39:00,
2013-08-02 23:54:00,55.1,53.0,29.92,South,190,5.0,18.0,92,0.00,,,0.00,weatherlink.com 1.10,2013-08-03 06:54:00,